星链-37737(STARLINK-37737)

导读

STARLINK-37737(NORAD编号69227)是SpaceX星链(Starlink)互联网星座中的一员,属于美国SpaceX公司开发的低轨卫星互联网项目。星链项目旨在构建覆盖全球的低成本、高性能空间互联网通信系统,该卫星运行在地球低轨道,高度低于600公里。SpaceX对所有星链卫星采取了可持续性设计,故障卫星会受大气影响在5年内脱离轨道,再入大气层时会完全燃尽,降低空间碎片风险。目前该卫星处于可跟踪在轨运行状态,为全球卫星互联网服务提供组网支持。

基本信息
目录编号:
69227
目录名称:
STARLINK-37737
国际标识:
2026-115S
轨道中心:
EARTH
卫星名称:
星链-37737
卫星全名:
星链-37737(STARLINK-37737)
卫星状态:
在轨 (已飞行110 天)
发射日期:
2026-05-26 UTC
国别 :
美国 (US)
星等 :
--
该卫星已列入 空间交会检测服务 Space Conjunction Data Service (SCDS) ,当前飞行风险评估等级: 无高风险
轨道信息
数据来源 国际轨道数据
星历时间: 2026-09-13T08:01:14+0800
11小时前
查看轨道信息
半长轴: 6843.663km
偏心率: 0.0001946
轨道倾角: 97.283°
近地点辐角 104.777°
升交点赤经 272.242°
平近点角 255.369°
近地点: 464.194km
远地点: 466.858km
周期: 93.906分钟
每日圈数: 15.334511
详细信息
固有亮度:
5
最大亮度:
2.5
卫星平台:
Starlink V1.0
覆盖范围:
全球
运营商:
太空探索技术公司
运营商所在国:
美国
制造商(研发单位):
太空探索技术公司
制造商所在国:
美国
使用方式:
暂无
卫星简介
Starlink 计划是 SpaceX 推出的全球卫星互联网项目,通过发射低轨道卫星,为全球尤其是偏远地区提供高速、低延迟的互联网服务。自 2019 年起,Starlink 已部署数千颗卫星,旨在缩小全球数字鸿沟,推动互联网普及。该项目还为军事、航空等行业提供通信支持,带来广泛经济效益。
2D轨道图
3D轨道图
轨道高度分析图
轨道倾角分析图
轨道综合分析图
查看轨道综合分析图
交会数据列表
事件ID 空间交会对象 最接近时刻(TCA) 交会距离 交会风险概率(CRP) 交会风险指数(CRI) 操作
CDM_260914-163804-944006-922721
2026-09-14T
16:38:16+0000
2.210 km
极远距离
2.235984E-6 低风险 0.42
CDM_260910-212905-719306-922722
2026-09-10T
21:29:44+0000
2.068 km
极远距离
1.575639E-6 低风险 0.39
CDM_260914-150205-872506-922721
2026-09-14T
15:02:05+0000
2.830 km
极远距离
1.426579E-6 低风险 0.38
CDM_260914-163305-398606-922721
2026-09-14T
16:33:58+0000
2.830 km
极远距离
1.412873E-6 低风险 0.38
CDM_260910-210704-944606-922722
2026-09-10T
21:07:27+0000
2.951 km
极远距离
1.364236E-6 低风险 0.38
与全量物体交会距离演化趋势
与全量物体交会风险概率演化趋势